User: anonymous   Login
Location: Ballingbuur
(53.0000°N, 5.7667°E)
Time: 05:30:27
(UTC+00:00)
Language:

USA 229 DEB - Orbit

View from above orbital plane
View from above orbital plane
View from above satellite
View from above satellite

Ground track
Ground track

The orbit data is extracted from the following two-line orbital elements,

1 37391U 11014B   21054.13835879 0.00000000  00000-0  00000-0 0    09
2 37391  63.4322 187.7752 0188451 358.4832   1.5168 13.40816451    06
Epoch (UTC): 23 February 2021 03:19:14
Eccentricity: 0.0188451
inclination: 63.4322°
perigee height: 965 km
apogee height: 1247 km
right ascension of ascending node: 187.7752°
argument of perigee: 358.4832°
revolutions per day: 13.40816451
mean anomaly at epoch: 1.5168°
orbit number at epoch: 0

The dashed part of the orbit path shows where the satellite is in the earth's shadow,  

DLR